Location: *
(53.4003°S, 165.3236°W)
Time: 01:13:51
(UTC+00:00)

IRS-1D - Pass Details

Date: 11 December 2023
Orbit: 738 x 814 km, 98.7° (Epoch: 24 February)

Event Time Altitude Azimuth Distance (km) Brightness Sun altitude
Rises 12:46:06 0° 31° (NNE) 3,338 6.5 -9.9°
Reaches altitude 10° 12:48:27 10° 34° (NE) 2,418 5.8 -9.7°
Maximum altitude 12:53:44 60° 112° (ESE) 945 4.3 -9.3°
Drops below altitude 10° 12:59:04 10° 190° (S) 2,442 6.9 -9.0°
Sets 13:01:27 0° 193° (SSW) 3,375 7.6 -8.8°
